Location: Natural Bridges National Monument
(37.6093°N, 109.9767°W)
Time: 15:26:02
(UTC-06:00)

Amateur Radio Satellites - All Passes

Search period start: 31 July 2015 14:56
Search period end: 01 August 2015 14:56
Location: Natural Bridges National Monument, 37.6093°N, 109.9767°W

Satellite Date Start Highest point End Downlink Frequencies (MHz)
Time Altitude Azimuth
Cosmos 2491 31 Jul 14:58:40 15:05:30 23° 294° (WNW) 15:11:58 435.465 / 435.565
Cosmos 2504 31 Jul 14:59:07 15:07:36 88° 264° (W) 15:16:15 435.465 / 435.565
JAS-2 31 Jul 15:07:26 15:12:56 40° 68° (ENE) 15:19:11 435.910
SWISSCUBE 31 Jul 15:07:49 15:12:37 82° 103° (ESE) 15:17:22 437.505
ITAMSAT 1 31 Jul 15:18:21 15:23:32 66° 258° (WSW) 15:28:45 435.822/435.867
DANDE 31 Jul 15:25:23 15:28:00 18° 77° (ENE) 15:31:18 436.750
ITUPSAT 1 31 Jul 15:28:29 15:33:15 68° 285° (WNW) 15:37:58 437.325
STARS 31 Jul 15:29:18 15:29:46 10° 89° (E) 15:30:34 437.465
CUSAT 1 31 Jul 15:49:23 15:53:33 58° 81° (E) 15:59:08 437.405
KKS-1 31 Jul 15:51:20 15:55:22 34° 97° (E) 15:59:27 437.445
HORYU 2 31 Jul 15:53:44 15:57:45 35° 72° (ENE) 16:01:52 437.375
AO-7 31 Jul 16:03:10 16:11:23 66° 69° (ENE) 16:19:41 29.400- 29.500
BEESAT 31 Jul 16:26:21 16:29:37 18° 293° (WNW) 16:32:44 436.000
Gurwin Techsat 1B 31 Jul 16:36:01 16:37:49 11° 272° (W) 16:39:13 435.225
MOZHAYETS 4 31 Jul 16:38:39 16:40:37 13° 89° (E) 16:42:49
SWISSCUBE 31 Jul 16:49:05 16:49:52 10° 297° (WNW) 16:50:22 437.505
JAS-2 31 Jul 16:52:57 16:58:11 30° 268° (W) 17:03:52 435.910
Cosmos 2504 31 Jul 16:53:58 16:58:52 16° 279° (W) 17:03:15 435.465 / 435.565
STARS 31 Jul 17:02:19 17:06:42 63° 285° (WNW) 17:11:05 437.465
DANDE 31 Jul 17:07:31 17:11:01 30° 262° (W) 17:15:25 436.750
GONETS M04 31 Jul 17:10:17 17:18:00 35° 72° (ENE) 17:25:53
Cubesat XI-IV 31 Jul 17:27:19 17:29:54 14° 63° (ENE) 17:32:45 437.490
KKS-1 31 Jul 17:28:28 17:31:49 20° 291° (WNW) 17:35:02 437.445
HORYU 2 31 Jul 17:31:20 17:34:32 19° 267° (W) 17:37:36 437.375
CUSAT 1 31 Jul 17:34:15 17:36:09 12° 265° (W) 17:37:53 437.405
VERMONT LUNAR 31 Jul 17:47:57 17:49:26 13° 145° (SE) 17:51:01 437.305
PCSat 31 Jul 17:53:52 17:57:10 17° 45° (NE) 18:00:39 145.827
AO-7 31 Jul 17:58:08 18:04:50 25° 267° (W) 18:11:16 29.400- 29.500
MOZHAYETS 4 31 Jul 18:13:43 18:18:16 55° 286° (WNW) 18:22:44
CUTE-I 31 Jul 18:20:36 18:25:38 44° 71° (ENE) 18:30:44 437.470
SO-50 31 Jul 18:24:35 18:28:55 30° 50° (NE) 18:33:12 436.795
CUBESAT XI-V 31 Jul 18:30:13 18:33:03 17° 91° (E) 18:36:06 437.345
Cubesat XI-IV 31 Jul 19:04:05 19:09:27 73° 258° (WSW) 19:14:50 437.490
GONETS M04 31 Jul 19:06:51 19:15:05 47° 270° (W) 19:23:14
Cosmos 2499 31 Jul 19:14:36 19:23:06 54° 77° (ENE) 19:31:46 435.465 / 435.565
VERMONT LUNAR 31 Jul 19:22:39 19:25:49 66° 158° (SSE) 19:28:58 437.305
PHONESAT 2.4 31 Jul 19:29:32 19:30:56 12° 144° (SE) 19:32:26 2401.200-2431.200
PCSat 31 Jul 19:35:50 19:41:16 76° 245° (WSW) 19:46:39 145.827
PRISM 31 Jul 19:49:44 19:53:06 25° 95° (E) 19:56:31 437.425
CUTE-I 31 Jul 20:01:50 20:05:57 21° 267° (W) 20:09:54 437.470
SO-50 31 Jul 20:05:04 20:09:28 33° 247° (WSW) 20:13:44 436.795
CUBESAT XI-V 31 Jul 20:06:24 20:10:44 42° 287° (WNW) 20:15:03 437.345
HO-68 31 Jul 20:11:25 20:17:43 36° 66° (ENE) 20:24:09 435.675
BRITE-PL 31 Jul 20:13:08 20:17:34 68° 76° (ENE) 20:21:47 437.365/2234.400
DOVE 4 31 Jul 20:18:31 20:21:50 24° 71° (ENE) 20:25:13 437.250
STRAND 1 31 Jul 20:23:09 20:28:16 76° 101° (ESE) 20:33:22 437.568
GOMX 1 31 Jul 20:26:45 20:30:54 52° 75° (ENE) 20:34:58 467.674
CINEMA 3 31 Jul 20:32:36 20:34:51 15° 67° (ENE) 20:37:18 145.822/145.860
COMPASS 1 31 Jul 20:44:58 20:48:21 25° 71° (ENE) 20:51:52 437.405
ISS 31 Jul 20:57:04 20:59:45 24° 132° (SE) 21:02:29 145.825
SEEDS 31 Jul 20:58:29 21:02:31 45° 74° (ENE) 21:06:37 437.485
VERMONT LUNAR 31 Jul 20:59:31 21:02:38 49° 355° (N) 21:05:44 437.305
CUTE 1.7 + AOD 2 31 Jul 21:00:25 21:04:37 61° 75° (ENE) 21:08:52 437.475
Oscar 11 31 Jul 21:04:32 21:07:07 16° 68° (ENE) 21:09:53 145.826/435.025
PHONESAT 2.4 31 Jul 21:05:01 21:08:28 58° 158° (SSE) 21:11:56 2401.200-2431.200
CUBEBUG 2 31 Jul 21:06:19 21:08:51 16° 68° (ENE) 21:11:34 437.445
Cosmos 2499 31 Jul 21:08:23 21:15:57 32° 274° (W) 21:23:20 435.465 / 435.565
CANX-2 31 Jul 21:08:39 21:12:56 87° 74° (ENE) 21:17:14 2200.000
DELFI C3 31 Jul 21:17:32 21:19:31 14° 68° (ENE) 21:21:43 145.870
PRISM 31 Jul 21:25:10 21:28:27 23° 290° (WNW) 21:31:38 437.425
AAUSAT CUBESAT 2 31 Jul 21:25:58 21:30:06 63° 76° (ENE) 21:34:17 437.432
RS-15 31 Jul 21:41:05 21:51:27 55° 112° (ESE) 22:02:16 29.354- 29.394
DOVE 4 31 Jul 21:56:12 21:59:36 23° 266° (W) 22:02:52 437.250
HO-68 31 Jul 21:58:43 22:05:23 41° 262° (W) 22:12:00 435.675
ZACube-1 31 Jul 22:03:31 22:07:28 42° 73° (ENE) 22:11:32 437.345
STRAND 1 31 Jul 22:04:42 22:06:55 12° 297° (WNW) 22:08:51 437.568
CINEMA 3 31 Jul 22:07:51 22:11:45 40° 262° (W) 22:15:43 145.822/145.860
GOMX 1 31 Jul 22:08:28 22:09:27 10° 270° (W) 22:10:10 467.674
M-CUBED/EXP-1 PRIME 31 Jul 22:19:58 22:24:01 27° 99° (E) 22:28:01 437.505
COMPASS 1 31 Jul 22:20:29 22:23:57 24° 266° (W) 22:27:23 437.405
FUNcube-1 31 Jul 22:25:10 22:29:19 77° 76° (ENE) 22:33:35 145.935
UWE-3 31 Jul 22:26:16 22:30:25 75° 259° (WSW) 22:34:42 435.000/436.395/437.385
ISS 31 Jul 22:33:10 22:36:06 31° 328° (NNW) 22:39:03 145.825
VERMONT LUNAR 31 Jul 22:36:26 22:39:35 62° 11° (N) 22:42:43 437.305
SEEDS 31 Jul 22:36:27 22:38:37 13° 270° (W) 22:40:34 437.485
Oscar 11 31 Jul 22:38:53 22:43:00 41° 262° (W) 22:47:07 145.826/435.025
UKube-1 31 Jul 22:40:28 22:44:12 30° 71° (ENE) 22:48:00 .
CUBEBUG 2 31 Jul 22:41:23 22:45:16 37° 263° (W) 22:49:12 437.445
AISAT 31 Jul 22:42:26 22:45:39 21° 69° (ENE) 22:49:01 437.250
PHONESAT 2.4 31 Jul 22:43:02 22:46:29 55° 353° (N) 22:49:57 2401.200-2431.200
50 SAT 31 Jul 22:47:10 22:50:13 23° 71° (ENE) 22:53:24 437.505
AUBIESAT-1 31 Jul 22:49:21 22:53:57 48° 103° (ESE) 22:58:24 437.475
DELFI C3 31 Jul 22:50:23 22:54:16 42° 262° (W) 22:58:09 145.870
HUMSAT D 31 Jul 22:53:19 22:57:24 66° 76° (ENE) 23:01:33 437.325/437.525
CUBEBUG 1 31 Jul 22:58:20 23:01:02 17° 68° (ENE) 23:03:54 437.445
DX 1 31 Jul 23:07:21 23:11:40 69° 75° (ENE) 23:15:59 434.975-435.025
UNISAT 6 31 Jul 23:09:20 23:13:14 26° 95° (E) 23:17:12 437.425
Cosmos 2491 31 Jul 23:12:23 23:19:45 31° 70° (ENE) 23:27:20 435.465 / 435.565
AIST 1 31 Jul 23:14:16 23:17:35 22° 74° (ENE) 23:20:59
VELOX 1 31 Jul 23:20:24 23:24:41 53° 74° (ENE) 23:28:59 145.980
BEESAT 2 31 Jul 23:20:55 23:23:23 16° 111° (ESE) 23:25:59 435.950
POPSAT HIP 1 31 Jul 23:27:35 23:29:35 13° 91° (E) 23:31:48 437.405
ESTCUBE 1 31 Jul 23:30:35 23:34:56 47° 73° (ENE) 23:39:18 437.505/2401.250
QB50P2 31 Jul 23:34:31 23:37:16 17° 92° (E) 23:40:10 145.880/145.840
YUBILEINY 31 Jul 23:34:35 23:39:31 18° 81° (E) 23:45:00 435.215
SPROUT 31 Jul 23:36:44 23:38:25 12° 66° (ENE) 23:40:19 437.525
ZACube-1 31 Jul 23:41:54 23:44:08 14° 270° (W) 23:46:11 437.345
TISAT 1 31 Jul 23:50:56 23:51:34 10° 65° (ENE) 23:52:27 437.305
TIGRISAT 31 Jul 23:52:14 23:56:56 74° 102° (ESE) 00:01:38 435.000
ANTELSAT 31 Jul 23:53:52 23:58:35 80° 102° (ESE) 00:03:19 437.575/2403.000
RS-15 31 Jul 23:53:55 00:04:14 43° 315° (NW) 00:14:49 29.354- 29.394
M-CUBED/EXP-1 PRIME 31 Jul 23:54:30 23:58:44 31° 295° (WNW) 00:02:49 437.505
DUCHIFAT 1 31 Jul 23:58:42 00:02:25 30° 96° (E) 00:06:12 145.980
BEESAT 3 31 Jul 23:59:34 00:03:33 60° 118° (ESE) 00:07:36 437.485
QB50P1 01 Aug 00:01:37 00:05:29 34° 97° (E) 00:09:23 145.935-145.965
NANOSAT C BR1 01 Aug 00:02:58 00:06:51 34° 97° (E) 00:10:45 145.865
VERMONT LUNAR 01 Aug 00:13:18 00:16:14 34° 207° (SSW) 00:19:08 437.305
UKube-1 01 Aug 00:17:02 00:20:22 21° 266° (W) 00:23:37 .
AISAT 01 Aug 00:18:06 00:22:04 32° 263° (W) 00:26:00 437.250
PHONESAT 2.4 01 Aug 00:21:14 00:24:43 61° 10° (N) 00:28:11 2401.200-2431.200
50 SAT 01 Aug 00:21:41 00:24:45 22° 266° (W) 00:27:46 437.505
AUBIESAT-1 01 Aug 00:24:58 00:28:16 18° 298° (WNW) 00:31:22 437.475
CUBEBUG 1 01 Aug 00:33:01 00:37:08 39° 262° (W) 00:41:13 437.445
POLYITAN 1 01 Aug 00:44:18 00:48:34 72° 284° (WNW) 00:52:50 437.675
UNISAT 6 01 Aug 00:45:54 00:49:58 29° 289° (WNW) 00:53:59 437.425
AIST 2 01 Aug 00:50:17 00:54:05 34° 115° (ESE) 00:57:58 435.215
AIST 1 01 Aug 00:51:42 00:55:13 24° 270° (W) 00:58:37
BEESAT 2 01 Aug 00:57:15 01:01:08 40° 305° (NW) 01:05:03 435.950
ITUPSAT 1 01 Aug 00:59:07 01:00:36 12° 64° (ENE) 01:02:21 437.325
VELOX 1 01 Aug 00:59:41 01:01:36 12° 270° (W) 01:03:17 145.980
POPSAT HIP 1 01 Aug 01:01:39 01:05:44 45° 286° (WNW) 01:09:48 437.405
BUGSAT 1 01 Aug 01:07:10 01:11:12 64° 285° (WNW) 01:15:15 437.445
Cosmos 2491 01 Aug 01:08:40 01:17:04 53° 269° (W) 01:25:22 435.465 / 435.565
QB50P2 01 Aug 01:09:23 01:13:19 36° 288° (WNW) 01:17:12 145.880/145.840
ESTCUBE 1 01 Aug 01:09:29 01:12:06 15° 269° (W) 01:14:30 437.505/2401.250
SPROUT 01 Aug 01:09:54 01:14:04 53° 260° (W) 01:18:17 437.525
TISAT 1 01 Aug 01:22:44 01:26:52 62° 259° (W) 01:31:00 437.305
YUBILEINY 01 Aug 01:26:40 01:35:22 84° 277° (W) 01:44:11 435.215
TIGRISAT 01 Aug 01:31:38 01:33:07 11° 295° (WNW) 01:34:21 435.000
ANTELSAT 01 Aug 01:33:57 01:34:47 10° 296° (WNW) 01:35:20 437.575/2403.000
DUCHIFAT 1 01 Aug 01:34:51 01:38:04 21° 291° (WNW) 01:41:11 145.980
QB50P1 01 Aug 01:38:07 01:41:08 19° 291° (WNW) 01:44:01 145.935-145.965
NANOSAT C BR1 01 Aug 01:39:29 01:42:27 18° 291° (WNW) 01:45:17 145.865
BEESAT 3 01 Aug 01:39:41 01:41:55 14° 316° (NW) 01:44:00 437.485
BEESAT 01 Aug 01:52:05 01:56:33 41° 72° (ENE) 02:01:05 436.000
O/OREOS (USA 219) 01 Aug 01:55:51 02:00:10 52° 107° (ESE) 02:04:34 437.305
PHONESAT 2.4 01 Aug 01:59:18 02:02:39 43° 206° (SSW) 02:05:57 2401.200-2431.200
SWISSCUBE 01 Aug 02:12:15 02:17:02 75° 75° (ENE) 02:21:52 437.505
Oscar 19 01 Aug 02:12:48 02:17:27 34° 96° (E) 02:22:10 437.125/150
RS-15 01 Aug 02:14:00 02:20:59 17° 347° (NNW) 02:27:54 29.354- 29.394
AIST 2 01 Aug 02:29:19 02:32:44 22° 311° (NW) 02:36:06 435.215
ITUPSAT 1 01 Aug 02:33:07 02:37:56 74° 258° (WSW) 02:42:46 437.325
KKS-1 01 Aug 02:48:01 02:51:35 25° 70° (ENE) 02:55:15 437.445
Gurwin Techsat 1B 01 Aug 03:10:18 03:15:08 36° 97° (E) 03:20:01 435.225
ISS 01 Aug 03:26:10 03:28:38 19° 27° (NNE) 03:31:06 145.825
Cosmos 2504 01 Aug 03:27:18 03:34:19 74° 94° (E) 03:41:52 435.465 / 435.565
YUBILEINY 01 Aug 03:28:48 03:33:51 15° 300° (WNW) 03:38:20 435.215
BEESAT 01 Aug 03:31:12 03:34:36 18° 268° (W) 03:37:51 436.000
ITAMSAT 1 01 Aug 03:33:12 03:38:14 52° 100° (E) 03:43:17 435.822/435.867
O/OREOS (USA 219) 01 Aug 03:37:24 03:40:00 15° 305° (NW) 03:42:27 437.305
MOZHAYETS 4 01 Aug 03:40:19 03:41:15 11° 64° (ENE) 03:42:27
Oscar 19 01 Aug 03:52:22 03:56:41 27° 292° (WNW) 04:00:56 437.125/150
STARS 01 Aug 03:57:00 04:01:21 89° 77° (ENE) 04:05:45 437.465
JAS-2 01 Aug 04:02:27 04:09:59 48° 97° (E) 04:17:24 435.910
AO-7 01 Aug 04:08:11 04:14:17 23° 92° (E) 04:20:43 29.400- 29.500
JUGNU 01 Aug 04:17:16 04:18:58 11° 172° (S) 04:20:43 437.505
KKS-1 01 Aug 04:24:23 04:28:09 26° 265° (W) 04:31:52 437.445
RS-15 01 Aug 04:31:34 04:39:34 21° 23° (NNE) 04:48:08 29.354- 29.394
DANDE 01 Aug 04:36:46 04:39:16 19° 97° (E) 04:41:30 436.750
Gurwin Techsat 1B 01 Aug 04:50:34 04:54:59 26° 292° (WNW) 04:59:17 435.225
CUSAT 1 01 Aug 04:56:58 04:59:59 80° 101° (ESE) 05:02:39 437.405
ISS 01 Aug 05:02:05 05:05:15 50° 224° (SW) 05:08:25 145.825
MOZHAYETS 4 01 Aug 05:13:17 05:17:55 75° 260° (W) 05:22:35
ITAMSAT 1 01 Aug 05:13:51 05:17:23 18° 295° (WNW) 05:20:43 435.822/435.867
Cosmos 2504 01 Aug 05:22:42 05:27:34 18° 296° (WNW) 05:32:15 435.465 / 435.565
HORYU 2 01 Aug 05:22:44 05:27:16 85° 284° (WNW) 05:31:46 437.375
CUBESAT XI-V 01 Aug 05:32:34 05:34:58 14° 66° (ENE) 05:37:34 437.345
JAS-2 01 Aug 05:47:48 05:54:47 36° 293° (WNW) 06:01:34 435.910
AO-7 01 Aug 05:59:33 06:07:50 70° 290° (WNW) 06:16:02 29.400- 29.500
STRAND 1 01 Aug 06:03:09 06:03:37 10° 62° (ENE) 06:04:25 437.568
JUGNU 01 Aug 06:04:26 06:07:09 13° 182° (S) 06:09:51 437.505
GONETS M04 01 Aug 06:08:52 06:16:48 43° 89° (E) 06:24:52
SRMSAT 01 Aug 06:08:55 06:10:38 11° 172° (S) 06:12:25 437.500
DANDE 01 Aug 06:21:30 06:22:18 11° 285° (WNW) 06:22:56 436.750
PRISM 01 Aug 06:38:48 06:41:15 16° 67° (ENE) 06:43:51 437.425
CUTE-I 01 Aug 06:40:27 06:44:12 20° 92° (E) 06:48:07 437.470
RS-15 01 Aug 06:43:54 06:55:26 58° 52° (NE) 07:07:28 29.354- 29.394
CUBESAT XI-V 01 Aug 07:07:24 07:12:00 55° 261° (W) 07:16:36 437.345
Cubesat XI-IV 01 Aug 07:23:25 07:28:38 53° 100° (E) 07:33:49 437.490
STRAND 1 01 Aug 07:37:00 07:42:09 88° 69° (ENE) 07:47:20 437.568
Cosmos 2499 01 Aug 07:49:24 07:56:06 41° 88° (E) 08:03:24 435.465 / 435.565
AO-7 01 Aug 07:55:03 07:59:20 15° 309° (NW) 08:03:08 29.400- 29.500
SRMSAT 01 Aug 07:56:18 07:58:58 13° 182° (S) 08:01:39 437.500
GONETS M04 01 Aug 08:05:44 08:13:46 38° 287° (WNW) 08:21:38
PRISM 01 Aug 08:12:26 08:16:23 40° 261° (W) 08:20:20 437.425
BRITE-PL 01 Aug 08:19:23 08:22:57 24° 95° (E) 08:26:49 437.365/2234.400
CUTE-I 01 Aug 08:19:28 08:24:33 46° 288° (WNW) 08:29:34 437.470
BEESAT 3 01 Aug 08:20:20 08:23:25 21° 49° (NE) 08:26:32 437.485
GOMX 1 01 Aug 08:30:17 08:33:29 19° 93° (E) 08:36:58 467.674
PCSat 01 Aug 08:34:14 08:37:44 18° 106° (ESE) 08:41:26 145.827
SO-50 01 Aug 08:39:17 08:41:24 13° 108° (ESE) 08:43:49 436.795
CUTE 1.7 + AOD 2 01 Aug 08:49:31 08:51:11 12° 89° (E) 08:53:05 437.475
RS-15 01 Aug 08:56:50 09:07:43 42° 251° (WSW) 09:18:36 29.354- 29.394
CANX-2 01 Aug 08:56:58 08:59:46 17° 92° (E) 09:02:42 2200.000
Cubesat XI-IV 01 Aug 09:04:41 09:08:22 19° 295° (WNW) 09:11:50 437.490
M-CUBED/EXP-1 PRIME 01 Aug 09:06:24 09:09:36 24° 63° (ENE) 09:13:06 437.505
AAUSAT CUBESAT 2 01 Aug 09:13:00 09:14:19 11° 89° (E) 09:15:53 437.432
AIST 2 01 Aug 09:14:30 09:16:54 15° 45° (NE) 09:19:24 435.215
BEESAT 2 01 Aug 09:17:46 09:21:49 63° 58° (ENE) 09:25:47 435.950
HO-68 01 Aug 09:27:54 09:34:41 44° 99° (E) 09:41:30 435.675
AUBIESAT-1 01 Aug 09:34:57 09:38:44 41° 68° (ENE) 09:42:52 437.475
Cosmos 2499 01 Aug 09:42:44 09:49:24 34° 289° (WNW) 09:56:23 435.465 / 435.565
DOVE 4 01 Aug 09:55:00 09:59:40 87° 279° (W) 10:04:36 437.250
ZACube-1 01 Aug 09:56:32 09:57:16 10° 88° (E) 09:58:20 437.345
BRITE-PL 01 Aug 09:57:41 10:01:31 28° 288° (WNW) 10:05:29 437.365/2234.400
BEESAT 3 01 Aug 09:57:48 10:01:26 32° 246° (WSW) 10:04:58 437.485
CINEMA 3 01 Aug 10:03:29 10:08:06 51° 100° (E) 10:12:53 145.822/145.860
COMPASS 1 01 Aug 10:04:48 10:08:59 60° 100° (E) 10:13:08 437.405
UNISAT 6 01 Aug 10:07:25 10:10:16 18° 68° (ENE) 10:13:19 437.425
GOMX 1 01 Aug 10:07:31 10:11:45 38° 286° (WNW) 10:16:12 467.674
PCSat 01 Aug 10:15:27 10:20:45 55° 301° (WNW) 10:26:05 145.827
FUNcube-1 01 Aug 10:16:09 10:19:11 18° 92° (E) 10:22:24 145.935
SO-50 01 Aug 10:16:44 10:21:26 64° 303° (WNW) 10:26:19 436.795
UWE-3 01 Aug 10:18:06 10:21:57 26° 95° (E) 10:25:53 435.000/436.395/437.385
SEEDS 01 Aug 10:20:04 10:24:20 69° 283° (WNW) 10:28:32 437.485
CUTE 1.7 + AOD 2 01 Aug 10:23:16 10:27:27 50° 286° (WNW) 10:31:35 437.475
QB50P2 01 Aug 10:27:47 10:28:36 11° 65° (ENE) 10:29:40 145.880/145.840
Oscar 11 01 Aug 10:27:58 10:32:03 39° 98° (E) 10:36:08 145.826/435.025
DELFI C3 01 Aug 10:31:26 10:34:53 27° 95° (E) 10:38:22 145.870
CANX-2 01 Aug 10:31:53 10:35:50 35° 287° (WNW) 10:39:44 2200.000
CUBEBUG 2 01 Aug 10:33:28 10:38:00 50° 99° (E) 10:42:36 437.445
M-CUBED/EXP-1 PRIME 01 Aug 10:40:51 10:44:17 27° 261° (W) 10:47:54 437.505
HUMSAT D 01 Aug 10:40:54 10:42:46 13° 90° (E) 10:44:52 437.325/437.525
AAUSAT CUBESAT 2 01 Aug 10:46:12 10:50:17 50° 286° (WNW) 10:54:20 437.432
TIGRISAT 01 Aug 10:49:11 10:53:20 49° 74° (ENE) 10:57:37 435.000
DUCHIFAT 1 01 Aug 10:50:00 10:52:47 18° 69° (ENE) 10:55:43 145.980
ANTELSAT 01 Aug 10:50:59 10:55:12 54° 74° (ENE) 10:59:34 437.575/2403.000
AIST 2 01 Aug 10:51:45 10:55:51 55° 243° (WSW) 10:59:51 435.215
QB50P1 01 Aug 10:53:07 10:56:12 21° 69° (ENE) 10:59:23 145.935-145.965
NANOSAT C BR1 01 Aug 10:54:15 10:57:20 21° 69° (ENE) 11:00:32 145.865
DX 1 01 Aug 10:59:17 11:01:18 13° 91° (E) 11:03:34 434.975-435.025
AUBIESAT-1 01 Aug 11:11:22 11:13:47 15° 266° (W) 11:16:07 437.475
VELOX 1 01 Aug 11:15:00 11:16:19 11° 90° (E) 11:17:55 145.980
HO-68 01 Aug 11:15:56 11:22:16 34° 295° (WNW) 11:28:27 435.675
ESTCUBE 1 01 Aug 11:27:35 11:28:49 11° 89° (E) 11:30:20 437.505/2401.250
ZACube-1 01 Aug 11:29:35 11:34:06 66° 285° (WNW) 11:38:39 437.345
POLYITAN 1 01 Aug 11:35:09 11:39:18 65° 75° (ENE) 11:43:29 437.675
YUBILEINY 01 Aug 11:39:25 11:47:44 45° 75° (ENE) 11:56:08 435.215
CINEMA 3 01 Aug 11:42:01 11:44:57 16° 292° (WNW) 11:47:45 145.822/145.860
UNISAT 6 01 Aug 11:42:44 11:46:47 37° 263° (W) 11:50:54 437.425
AIST 1 01 Aug 11:42:46 11:45:10 15° 88° (E) 11:47:46
COMPASS 1 01 Aug 11:42:56 11:44:11 11° 294° (WNW) 11:45:12 437.405
FUNcube-1 01 Aug 11:51:25 11:55:40 39° 287° (WNW) 11:59:54 145.935
POPSAT HIP 1 01 Aug 11:52:05 11:56:16 80° 258° (WSW) 12:00:29 437.405
UWE-3 01 Aug 11:54:27 11:58:25 28° 289° (WNW) 12:02:21 435.000/436.395/437.385
BUGSAT 1 01 Aug 11:55:04 11:59:05 66° 75° (ENE) 12:03:05 437.445
50 SAT 01 Aug 11:57:54 12:01:43 45° 99° (E) 12:05:32 437.505
QB50P2 01 Aug 11:59:52 12:04:01 61° 259° (WSW) 12:08:12 145.880/145.840
SO-50 01 Aug 12:02:17 12:03:03 10° 324° (NW) 12:03:36 436.795
UKube-1 01 Aug 12:05:03 12:09:22 73° 103° (ESE) 12:13:40 .
Oscar 11 01 Aug 12:05:03 12:07:57 17° 292° (WNW) 12:10:42 145.826/435.025
DELFI C3 01 Aug 12:06:45 12:09:49 20° 290° (WNW) 12:12:46 145.870
O/OREOS (USA 219) 01 Aug 12:07:30 12:12:06 74° 68° (ENE) 12:16:40 437.305
AISAT 01 Aug 12:09:59 12:14:19 53° 100° (E) 12:18:39 437.250
Cosmos 2491 01 Aug 12:11:09 12:18:54 38° 88° (E) 12:26:47 435.465 / 435.565
CUBEBUG 2 01 Aug 12:11:25 12:14:20 16° 292° (WNW) 12:17:04 437.445
HUMSAT D 01 Aug 12:14:38 12:18:49 49° 286° (WNW) 12:23:00 437.325/437.525
CUBEBUG 1 01 Aug 12:23:29 12:27:34 40° 98° (E) 12:31:40 437.445
DUCHIFAT 1 01 Aug 12:24:35 12:28:23 33° 263° (W) 12:32:10 145.980
QB50P1 01 Aug 12:28:12 12:31:54 29° 264° (W) 12:35:34 145.935-145.965
TIGRISAT 01 Aug 12:28:23 12:30:28 13° 271° (W) 12:32:20 435.000
NANOSAT C BR1 01 Aug 12:29:21 12:33:01 29° 264° (W) 12:36:39 145.865
ANTELSAT 01 Aug 12:30:44 12:32:26 12° 271° (W) 12:33:53 437.575/2403.000
DX 1 01 Aug 12:33:41 12:37:53 47° 286° (WNW) 12:42:01 434.975-435.025
VELOX 1 01 Aug 12:48:58 12:53:18 56° 286° (WNW) 12:57:36 145.980
SPROUT 01 Aug 12:58:37 13:02:20 29° 96° (E) 13:06:08 437.525
ESTCUBE 1 01 Aug 13:01:43 13:06:09 59° 285° (WNW) 13:10:33 437.505/2401.250
TISAT 1 01 Aug 13:09:31 13:12:50 23° 94° (E) 13:16:14 437.305
Cosmos 2504 01 Aug 13:15:55 13:22:06 23° 67° (ENE) 13:28:44 435.465 / 435.565
AIST 1 01 Aug 13:18:27 13:22:32 38° 282° (WNW) 13:26:35
Oscar 19 01 Aug 13:27:48 13:32:31 40° 71° (ENE) 13:37:19 437.125/150
50 SAT 01 Aug 13:34:05 13:35:56 13° 293° (WNW) 13:37:35 437.505
YUBILEINY 01 Aug 13:36:32 13:44:26 37° 273° (W) 13:52:10 435.215
AISAT 01 Aug 13:48:15 13:50:29 13° 294° (WNW) 13:52:30 437.250
BEESAT 01 Aug 13:56:17 13:57:58 12° 89° (E) 13:59:58 436.000
CUBEBUG 1 01 Aug 14:00:53 14:03:38 16° 292° (WNW) 14:06:13 437.445
Cosmos 2491 01 Aug 14:07:24 14:15:41 43° 286° (WNW) 14:23:52 435.465 / 435.565
JAS-2 01 Aug 14:15:16 14:18:40 16° 58° (ENE) 14:22:37 435.910
SWISSCUBE 01 Aug 14:15:18 14:18:56 22° 94° (E) 14:22:40 437.505
Gurwin Techsat 1B 01 Aug 14:29:24 14:34:27 47° 72° (ENE) 14:39:34 435.225
SPROUT 01 Aug 14:34:56 14:38:17 22° 290° (WNW) 14:41:32 437.525
ITUPSAT 1 01 Aug 14:35:59 14:40:16 32° 96° (E) 14:44:34 437.325
TISAT 1 01 Aug 14:45:01 14:48:35 26° 289° (WNW) 14:52:05 437.305
